Zurück zum Katalog

STARLINK-5586

AktivKommunikationVLEO
NORAD 55376·PAYLOAD·🇺🇸 United States

Gestartet Jan 26, 2023 von Cape Canaveral Space Force Station

Loading…

Nächste Überflüge (nächste 24 Stunden)

TLE

AktuellSource: CelesTrak SupGP

Epoche: Sep 14, 2026, 20:49 UTC

1 55376C 23013AX  26257.86784722 -.00027713  00000+0 -10038-2 0  2573
2 55376  42.9995 300.5005 0001558 267.2987  88.5893 15.27590681    15

Verfolge STARLINK-5586 in Echtzeit mit AllMySat

Download on the App Store